User: anonymous   Login
Location: Unspecified
(0.0000°N, 0.0000°E)
Time: 23:33:14
(UTC+00:00)
Language:

USA 155 - Orbit

View from above orbital plane
View from above orbital plane
View from above satellite
View from above satellite

Ground track
Ground track

The orbit data is extracted from the following two-line orbital elements,

1 26635U 00080A   17327.61746907 0.00000000  00000-0  00000-0 0    03
2 26635   8.1500  35.0722 0008996 194.6220 165.3606  1.00270000    00
Epoch (UTC): 23 November 2017 14:49:09
Eccentricity: 0.0008996
inclination: 8.1500°
perigee height: 35749 km
apogee height: 35824 km
right ascension of ascending node: 35.0722°
argument of perigee: 194.6220°
revolutions per day: 1.00270000
mean anomaly at epoch: 165.3606°
orbit number at epoch: 0

The dashed part of the orbit path shows where the satellite is in the earth's shadow,  

DLR